Simultaneous Nadir Overpasses (SNOs) Predictions

Prediction of SNOs between LANDSAT-8 and METOP-B Satellite Orbit:

Table of predicted SNOs for the next 14.0 days since TLE Epoch: 5/8/2021
Index Date (LANDSAT-8) Time (LANDSAT-8) Lat,Lon (LANDSAT-8) SZA (LANDSAT-8 ) Date (METOP-B) Time (METOP-B) Lat,Lon (METOP-B) SZA (METOP-B ) Distance(km) Time Diff (sec)
1 05/09/2021 06:53:51 -81.10, -63.85 114.14 05/09/2021 06:52:55 -81.09, -63.95 114.18 1.99 56
2 05/09/2021 07:43:17 81.11, 103.88 65.87 05/09/2021 07:43:35 81.11, 103.73 65.86 2.52 18
3 05/12/2021 02:28:08 -81.11, 2.69 114.84 05/12/2021 02:27:19 -81.11, 2.85 114.85 2.80 49
4 05/12/2021 03:17:34 81.11, 170.39 65.16 05/12/2021 03:17:59 81.12, 170.50 65.19 2.07 25
5 05/14/2021 22:02:25 -81.11, 69.16 115.52 05/14/2021 22:01:44 -81.11, 69.26 115.53 1.72 41
6 05/14/2021 22:51:50 81.13,-122.79 64.54 05/14/2021 22:52:23 81.13,-122.76 64.55 0.80 33
7 05/17/2021 17:36:42 -81.11, 135.58 116.16 05/17/2021 17:36:09 -81.11, 135.66 116.17 1.36 33
8 05/17/2021 18:26:07 81.13, -56.40 63.89 05/17/2021 18:26:48 81.13, -56.41 63.91 0.45 41
9 05/20/2021 13:10:58 -81.10,-158.05 116.77 05/20/2021 13:10:33 -81.11,-157.95 116.77 1.76 25



Historial Predications of SNOs between LANDSAT-8 and METOP-B
